When you browse on this site, cookies collect data to enhance your experience and personalize the content and advertising you see.
Visit our Privacy Policy to learn more. By continuing to use the site, you agree to this use of cookies and data.
  • In Hungary
  • List of Countries
  • For 7 days
  • Water Temperature
  • Weather Map
  • News
  • Weather Widgets
  • user-avatar
    Login

    Hourly Weather Kovalevka

    Today, 15 September, Sunday

    Time Temperature Precipitation Wind Pressure Humidity
    00:00 +9°C° 0 mm 3 mps 748 mmHg 78%
    01:00 +8°C° 0 mm 3 mps 747 mmHg 79%
    02:00 +8°C° 0 mm 3 mps 747 mmHg 80%
    03:00 +8°C° 0 mm 3 mps 747 mmHg 81%
    04:00 +8°C° 0.1 mm 3 mps 747 mmHg 84%
    05:00 +7°C° 0.1 mm 3 mps 747 mmHg 88%
    06:00 +7°C° 0.1 mm 3 mps 747 mmHg 91%
    07:00 +7°C° 0.1 mm 4 mps 747 mmHg 87%
    08:00 +8°C° 0.1 mm 4 mps 747 mmHg 83%
    09:00 +9°C° 0.1 mm 5 mps 747 mmHg 79%
    10:00 +10°C° 0 mm 5 mps 747 mmHg 71%
    11:00 +13°C° 0 mm 5 mps 747 mmHg 64%
    12:00 +14°C° 0 mm 5 mps 747 mmHg 56%
    13:00 +14°C° 0 mm 5 mps 747 mmHg 53%
    14:00 +14°C° 0 mm 6 mps 746 mmHg 51%
    15:00 +15°C° 0 mm 6 mps 746 mmHg 48%
    16:00 +14°C° 0 mm 5 mps 746 mmHg 52%
    17:00 +13°C° 0 mm 4 mps 745 mmHg 56%
    18:00 +12°C° 0 mm 4 mps 745 mmHg 60%
    19:00 +12°C° 0 mm 4 mps 744 mmHg 60%
    20:00 +12°C° 0 mm 5 mps 744 mmHg 60%
    21:00 +12°C° 0 mm 5 mps 744 mmHg 61%
    22:00 +10°C° 0.1 mm 6 mps 743 mmHg 67%
    23:00 +10°C° 0.1 mm 7 mps 742 mmHg 73%

    Tomorrow, 16 September, Monday

    Time Temperature Precipitation Wind Pressure Humidity
    00:00 +9°C° 0.1 mm 8 mps 742 mmHg 79%
    01:00 +9°C° 0.4 mm 8 mps 741 mmHg 81%
    02:00 +9°C° 0.4 mm 8 mps 741 mmHg 82%
    03:00 +9°C° 0.4 mm 8 mps 740 mmHg 83%
    04:00 +9°C° 0 mm 8 mps 739 mmHg 82%
    05:00 +10°C° 0 mm 8 mps 739 mmHg 81%
    06:00 +10°C° 0 mm 7 mps 738 mmHg 81%
    07:00 +10°C° 0.3 mm 8 mps 738 mmHg 82%
    08:00 +10°C° 0.3 mm 8 mps 737 mmHg 83%
    09:00 +10°C° 0.3 mm 9 mps 737 mmHg 84%
    10:00 +10°C° 0.2 mm 9 mps 736 mmHg 82%
    11:00 +11°C° 0.2 mm 9 mps 736 mmHg 81%
    12:00 +11°C° 0.2 mm 9 mps 736 mmHg 79%
    13:00 +11°C° 0.3 mm 9 mps 736 mmHg 77%
    14:00 +12°C° 0.3 mm 8 mps 736 mmHg 74%
    15:00 +12°C° 0.3 mm 8 mps 735 mmHg 71%
    16:00 +12°C° 0 mm 7 mps 736 mmHg 71%
    17:00 +13°C° 0 mm 6 mps 736 mmHg 70%
    18:00 +12°C° 0 mm 5 mps 736 mmHg 69%
    19:00 +12°C° 0 mm 5 mps 736 mmHg 70%
    20:00 +10°C° 0 mm 6 mps 736 mmHg 72%
    21:00 +9°C° 0 mm 6 mps 736 mmHg 74%
    22:00 +9°C° 0 mm 6 mps 736 mmHg 74%
    23:00 +9°C° 0 mm 6 mps 735 mmHg 75%

    Day after tomorrow, 17 September, Tuesday

    Time Temperature Precipitation Wind Pressure Humidity
    00:00 +9°C° 0 mm 6 mps 735 mmHg 76%
    01:00 +9°C° 0 mm 6 mps 735 mmHg 76%
    02:00 +9°C° 0 mm 6 mps 735 mmHg 75%
    03:00 +9°C° 0 mm 6 mps 735 mmHg 75%
    04:00 +8°C° 0 mm 6 mps 735 mmHg 78%
    05:00 +8°C° 0 mm 6 mps 735 mmHg 80%
    06:00 +7°C° 0 mm 6 mps 735 mmHg 82%
    07:00 +8°C° 0 mm 6 mps 735 mmHg 78%
    08:00 +9°C° 0 mm 7 mps 735 mmHg 73%
    09:00 +9°C° 0 mm 7 mps 735 mmHg 68%
    10:00 +10°C° 0 mm 7 mps 735 mmHg 64%
    11:00 +10°C° 0 mm 7 mps 735 mmHg 61%
    12:00 +11°C° 0 mm 7 mps 735 mmHg 57%
    13:00 +11°C° 0 mm 7 mps 735 mmHg 56%
    14:00 +12°C° 0 mm 7 mps 734 mmHg 54%
    15:00 +12°C° 0 mm 7 mps 734 mmHg 53%
    16:00 +11°C° 0 mm 6 mps 734 mmHg 58%
    17:00 +11°C° 0 mm 6 mps 734 mmHg 63%
    18:00 +10°C° 0 mm 5 mps 734 mmHg 68%
    19:00 +9°C° 0 mm 5 mps 734 mmHg 71%
    20:00 +10°C° 0 mm 4 mps 734 mmHg 74%
    21:00 +8°C° 0 mm 4 mps 734 mmHg 76%
    22:00 +8°C° 0 mm 4 mps 734 mmHg 79%
    23:00 +7°C° 0 mm 4 mps 733 mmHg 82%

    18 September, Wednesday

    Time Temperature Precipitation Wind Pressure Humidity
    00:00 +7°C° 0 mm 4 mps 733 mmHg 85%
    01:00 +6°C° 0 mm 4 mps 733 mmHg 87%
    02:00 +6°C° 0 mm 4 mps 733 mmHg 88%
    03:00 +5°C° 0 mm 4 mps 733 mmHg 90%
    04:00 +5°C° 0 mm 3 mps 733 mmHg 90%
    05:00 +5°C° 0 mm 3 mps 733 mmHg 90%
    06:00 +5°C° 0 mm 3 mps 733 mmHg 89%
    07:00 +5°C° 0.5 mm 4 mps 733 mmHg 89%
    08:00 +6°C° 0.5 mm 4 mps 732 mmHg 88%
    09:00 +6°C° 0.5 mm 4 mps 732 mmHg 87%
    10:00 +7°C° 0.5 mm 4 mps 732 mmHg 86%
    11:00 +8°C° 0.5 mm 4 mps 732 mmHg 84%
    12:00 +9°C° 0.5 mm 3 mps 732 mmHg 82%
    13:00 +8°C° 0.5 mm 4 mps 732 mmHg 83%
    14:00 +8°C° 0.5 mm 5 mps 732 mmHg 84%
    15:00 +7°C° 0.5 mm 6 mps 732 mmHg 84%
    16:00 +7°C° 0.4 mm 5 mps 732 mmHg 85%
    17:00 +7°C° 0.4 mm 5 mps 733 mmHg 86%
    18:00 +7°C° 0.4 mm 4 mps 733 mmHg 86%
    19:00 +7°C° 0.1 mm 5 mps 734 mmHg 87%
    20:00 +7°C° 0.1 mm 5 mps 734 mmHg 87%
    21:00 +7°C° 0.1 mm 5 mps 735 mmHg 88%
    22:00 +6°C° 0 mm 5 mps 736 mmHg 89%
    23:00 +6°C° 0 mm 5 mps 736 mmHg 91%

    19 September, Thursday

    Time Temperature Precipitation Wind Pressure Humidity
    00:00 +5°C° 0 mm 5 mps 737 mmHg 92%
    01:00 +5°C° 0 mm 4 mps 738 mmHg 93%
    02:00 +5°C° 0 mm 4 mps 738 mmHg 94%
    03:00 +4°C° 0 mm 4 mps 739 mmHg 95%
    04:00 +4°C° 0 mm 4 mps 740 mmHg 95%
    05:00 +4°C° 0 mm 4 mps 740 mmHg 95%
    06:00 +4°C° 0 mm 3 mps 740 mmHg 95%
    07:00 +5°C° 0 mm 3 mps 741 mmHg 93%
    08:00 +5°C° 0 mm 4 mps 741 mmHg 90%
    09:00 +6°C° 0 mm 4 mps 742 mmHg 87%
    10:00 +7°C° 0 mm 4 mps 742 mmHg 82%
    11:00 +9°C° 0 mm 3 mps 742 mmHg 77%
    12:00 +10°C° 0 mm 3 mps 742 mmHg 72%
    13:00 +11°C° 0.1 mm 3 mps 742 mmHg 68%
    14:00 +11°C° 0.1 mm 3 mps 742 mmHg 65%
    15:00 +12°C° 0.1 mm 3 mps 742 mmHg 61%
    16:00 +11°C° 0.1 mm 3 mps 742 mmHg 65%
    17:00 +10°C° 0.1 mm 2 mps 742 mmHg 70%
    18:00 +9°C° 0.1 mm 2 mps 742 mmHg 75%
    19:00 +9°C° 0 mm 2 mps 742 mmHg 76%
    20:00 +9°C° 0 mm 1 mps 743 mmHg 78%
    21:00 +8°C° 0 mm 1 mps 743 mmHg 80%
    22:00 +8°C° 0.1 mm 1 mps 743 mmHg 81%
    23:00 +8°C° 0.1 mm 1 mps 743 mmHg 81%

    20 September, Friday

    Time Temperature Precipitation Wind Pressure Humidity
    00:00 +8°C° 0.1 mm 1 mps 743 mmHg 81%
    01:00 +7°C° 0.2 mm 2 mps 744 mmHg 83%
    02:00 +6°C° 0.2 mm 2 mps 744 mmHg 85%
    03:00 +5°C° 0.2 mm 3 mps 744 mmHg 87%
    04:00 +5°C° 0.1 mm 3 mps 744 mmHg 87%
    05:00 +5°C° 0.1 mm 2 mps 744 mmHg 87%
    06:00 +5°C° 0.1 mm 2 mps 745 mmHg 87%
    07:00 +6°C° 0 mm 2 mps 745 mmHg 82%
    08:00 +6°C° 0 mm 2 mps 745 mmHg 78%
    09:00 +7°C° 0 mm 2 mps 745 mmHg 74%
    10:00 +8°C° 0 mm 3 mps 746 mmHg 68%
    11:00 +9°C° 0 mm 3 mps 746 mmHg 61%
    12:00 +10°C° 0 mm 3 mps 746 mmHg 55%
    13:00 +10°C° 0 mm 3 mps 746 mmHg 54%
    14:00 +10°C° 0 mm 2 mps 746 mmHg 53%
    15:00 +10°C° 0 mm 2 mps 746 mmHg 52%
    16:00 +9°C° 0 mm 2 mps 746 mmHg 54%
    17:00 +9°C° 0 mm 2 mps 746 mmHg 56%
    18:00 +9°C° 0 mm 1 mps 746 mmHg 58%
    19:00 +8°C° 0 mm 1 mps 747 mmHg 59%
    20:00 +8°C° 0 mm 1 mps 747 mmHg 60%
    21:00 +7°C° 0 mm 1 mps 747 mmHg 61%
    22:00 +6°C° 0 mm 1 mps 747 mmHg 63%
    23:00 +6°C° 0 mm 1 mps 747 mmHg 65%
    Show more